RYR50XY LFMU-EGGW

Flight info

Callsign RYR50XY
Flight time 1h 37m
Altitude 38000
Route FJR DCT NG DCT MOLEN DCT MTL DCT ETREK DCT MADOT DCT MOPEM DCT CACHI DCT AVLON DCT OKRIX DCT BRY DCT CLM DCT KOPOR DCT PIREG DCT SOSUN DCT SUBIP UM733 UNDUG
Aircraft B38M/M-SDE2E3FGHIRWXY/LB1

Departure

Time 2026-04-22 11:54
Airport Béziers Vias airport (LFMU)

Arrival

Time 2026-04-22 13:32
Airport London Luton Airport (EGGW)
Time Latitude Longitude Altitude Speed Heading
2026-04-22 11:40 43.32149 3.35231 55 ft 0 kts 132°
2026-04-22 11:48 43.32144 3.35240 53 ft 3 kts 118°
2026-04-22 11:48 43.32154 3.35287 50 ft 6 kts 63°
2026-04-22 11:48 43.32180 3.35321 53 ft 4 kts
2026-04-22 11:48 43.32192 3.35323 54 ft 0 kts
2026-04-22 11:50 43.32222 3.35326 55 ft 9 kts
2026-04-22 11:50 43.32311 3.35333 56 ft 15 kts 349°
2026-04-22 11:50 43.32349 3.35210 56 ft 16 kts 274°
2026-04-22 11:51 43.32359 3.35023 54 ft 22 kts 275°
2026-04-22 11:51 43.32372 3.34796 54 ft 25 kts 274°
2026-04-22 11:51 43.32386 3.34569 56 ft 23 kts 281°
2026-04-22 11:51 43.32396 3.34369 57 ft 17 kts 274°
2026-04-22 11:52 43.32385 3.34234 56 ft 8 kts 238°
2026-04-22 11:52 43.32403 3.34210 54 ft 8 kts 66°
2026-04-22 11:52 43.32403 3.34230 58 ft 0 kts 94°
2026-04-22 11:53 43.32403 3.34232 60 ft 2 kts 94°
2026-04-22 11:54 43.32385 3.34560 58 ft 74 kts 94°
2026-04-22 11:54 43.32328 3.35604 55 ft 143 kts 95°
2026-04-22 11:54 43.32236 3.37093 541 ft 163 kts 97°
2026-04-22 11:54 43.32172 3.38603 1535 ft 156 kts 85°
2026-04-22 11:55 43.32702 3.39949 2284 ft 175 kts 52°
2026-04-22 11:55 43.33555 3.41343 2616 ft 205 kts 54°
2026-04-22 11:55 43.34520 3.42964 2917 ft 229 kts 54°
2026-04-22 11:55 43.35546 3.44688 3552 ft 238 kts 53°
2026-04-22 11:56 43.36639 3.46538 4001 ft 256 kts 53°
2026-04-22 11:56 43.37773 3.48462 4882 ft 261 kts 53°
2026-04-22 11:56 43.38931 3.50435 5672 ft 270 kts 51°
2026-04-22 11:56 43.40135 3.52490 6375 ft 282 kts 49°
2026-04-22 11:57 43.41369 3.54605 7242 ft 283 kts 49°
2026-04-22 11:57 43.42608 3.56732 8086 ft 287 kts 48°
2026-04-22 11:57 43.43867 3.58904 8885 ft 294 kts 49°
2026-04-22 11:57 43.45143 3.61125 9707 ft 297 kts 43°
2026-04-22 11:58 43.46558 3.63227 10440 ft 304 kts 41°
2026-04-22 11:58 43.48087 3.65400 10690 ft 329 kts 41°
2026-04-22 11:58 43.49737 3.67739 10950 ft 351 kts 41°
2026-04-22 11:58 43.51449 3.70200 11538 ft 360 kts 42°
2026-04-22 11:59 43.53182 3.72722 12295 ft 364 kts 42°
2026-04-22 11:59 43.54922 3.75279 13081 ft 368 kts 42°
2026-04-22 11:59 43.56681 3.77877 13828 ft 373 kts 43°
2026-04-22 11:59 43.58462 3.80517 14503 ft 378 kts 43°
2026-04-22 12:00 43.59647 3.82279 14982 ft 379 kts 43°
2026-04-22 12:00 43.61447 3.84956 15715 ft 381 kts 43°
2026-04-22 12:00 43.63258 3.87655 16410 ft 385 kts 43°
2026-04-22 12:00 43.65085 3.90378 17099 ft 389 kts 43°
2026-04-22 12:01 43.66931 3.93132 17772 ft 392 kts 43°
2026-04-22 12:01 43.68794 3.95914 18438 ft 396 kts 44°
2026-04-22 12:01 43.70673 3.98722 19017 ft 399 kts 44°
2026-04-22 12:01 43.72564 4.01552 19596 ft 403 kts 44°
2026-04-22 12:02 43.74470 4.04408 20168 ft 406 kts 44°
2026-04-22 12:02 43.76393 4.07290 20740 ft 409 kts 44°
2026-04-22 12:02 43.78329 4.10196 21302 ft 412 kts 44°
2026-04-22 12:02 43.80281 4.13129 21842 ft 416 kts 44°
2026-04-22 12:03 43.82247 4.16085 22387 ft 419 kts 44°
2026-04-22 12:03 43.84229 4.19069 22920 ft 422 kts 44°
2026-04-22 12:03 43.86222 4.22073 23445 ft 425 kts 44°
2026-04-22 12:03 43.88233 4.25107 23905 ft 429 kts 44°
2026-04-22 12:04 43.90253 4.28159 24345 ft 431 kts 44°
2026-04-22 12:04 43.92285 4.31231 24793 ft 433 kts 44°
2026-04-22 12:04 43.94322 4.34316 25228 ft 435 kts 44°
2026-04-22 12:04 43.96372 4.37423 25651 ft 438 kts 44°
2026-04-22 12:05 43.98435 4.40552 26052 ft 440 kts 44°
2026-04-22 12:05 44.00483 4.43662 26448 ft 443 kts 44°
2026-04-22 12:05 44.02594 4.46869 26849 ft 445 kts 44°
2026-04-22 12:05 44.04827 4.49754 27216 ft 444 kts 34°
2026-04-22 12:06 44.07386 4.52153 27618 ft 443 kts 26°
2026-04-22 12:06 44.10200 4.53980 28001 ft 441 kts 18°
2026-04-22 12:06 44.13040 4.55478 28330 ft 443 kts 17°
2026-04-22 12:06 44.15947 4.56962 28665 ft 446 kts 17°
2026-04-22 12:07 44.18912 4.58477 28990 ft 449 kts 17°
2026-04-22 12:07 44.21847 4.59998 29320 ft 452 kts 17°
2026-04-22 12:07 44.24797 4.61547 29631 ft 455 kts 18°
2026-04-22 12:07 44.27765 4.63121 29939 ft 457 kts 18°
2026-04-22 12:08 44.30697 4.64686 30237 ft 459 kts 18°
2026-04-22 12:08 44.33687 4.66286 30597 ft 458 kts 18°
2026-04-22 12:08 44.36653 4.67876 31046 ft 456 kts 17°
2026-04-22 12:08 44.39603 4.69458 31482 ft 453 kts 17°
2026-04-22 12:09 44.42542 4.71034 31866 ft 452 kts 17°
2026-04-22 12:09 44.45475 4.72607 32220 ft 452 kts 17°
2026-04-22 12:09 44.48408 4.74182 32608 ft 450 kts 17°
2026-04-22 12:09 44.51325 4.75741 33026 ft 448 kts 14°
2026-04-22 12:10 44.54308 4.76851 33403 ft 440 kts
2026-04-22 12:10 44.57327 4.77278 33782 ft 433 kts 356°
2026-04-22 12:10 44.60308 4.77082 34151 ft 425 kts 347°
2026-04-22 12:10 44.63226 4.76454 34484 ft 423 kts 346°
2026-04-22 12:11 44.66122 4.75777 34818 ft 420 kts 346°
2026-04-22 12:11 44.68992 4.75099 35202 ft 417 kts 346°
2026-04-22 12:11 44.71850 4.74432 35512 ft 416 kts 347°
2026-04-22 12:11 44.74707 4.73776 35748 ft 416 kts 347°
2026-04-22 12:12 44.77567 4.73130 36031 ft 415 kts 347°
2026-04-22 12:12 44.80413 4.72493 36387 ft 413 kts 347°
2026-04-22 12:12 44.83243 4.71863 36739 ft 410 kts 348°
2026-04-22 12:12 44.86051 4.71238 37049 ft 408 kts 348°
2026-04-22 12:13 44.88853 4.70615 37305 ft 407 kts 348°
2026-04-22 12:13 44.91656 4.69989 37512 ft 408 kts 348°
2026-04-22 12:13 44.94455 4.69364 37712 ft 407 kts 348°
2026-04-22 12:13 44.97250 4.68739 37988 ft 406 kts 348°
2026-04-22 12:14 45.02850 4.67485 38110 ft 409 kts 348°
2026-04-22 12:14 45.08454 4.66228 38087 ft 405 kts 348°
2026-04-22 12:15 45.13994 4.64984 38085 ft 401 kts 348°
2026-04-22 12:15 45.19490 4.63746 38076 ft 398 kts 348°
2026-04-22 12:16 45.24948 4.62501 38078 ft 397 kts 348°
2026-04-22 12:16 45.30397 4.61250 38088 ft 397 kts 348°
2026-04-22 12:17 45.35861 4.59994 38077 ft 398 kts 348°
2026-04-22 12:17 45.41300 4.58743 38084 ft 400 kts 348°
2026-04-22 12:18 45.46816 4.57470 38077 ft 403 kts 348°
2026-04-22 12:18 45.52369 4.56188 38075 ft 406 kts 348°
2026-04-22 12:19 45.57943 4.54898 38071 ft 408 kts 348°
2026-04-22 12:19 45.63585 4.53589 38092 ft 414 kts 348°
2026-04-22 12:20 45.69313 4.52258 38088 ft 419 kts 348°
2026-04-22 12:20 45.75088 4.50915 38089 ft 421 kts 348°
2026-04-22 12:21 45.80883 4.49567 38088 ft 422 kts 348°
2026-04-22 12:21 45.86671 4.48219 38094 ft 421 kts 348°
2026-04-22 12:22 45.92438 4.46871 38096 ft 419 kts 347°
2026-04-22 12:22 45.98194 4.45523 38095 ft 418 kts 347°
2026-04-22 12:23 46.03930 4.44177 38081 ft 417 kts 347°
2026-04-22 12:23 46.09646 4.42833 38086 ft 416 kts 347°
2026-04-22 12:24 46.15348 4.41489 38089 ft 415 kts 347°
2026-04-22 12:24 46.21033 4.40145 38088 ft 414 kts 347°
2026-04-22 12:25 46.26712 4.38801 38098 ft 413 kts 347°
2026-04-22 12:25 46.32339 4.37149 38110 ft 411 kts 343°
2026-04-22 12:26 46.37895 4.35163 38101 ft 411 kts 343°
2026-04-22 12:26 46.43451 4.33164 38104 ft 412 kts 343°
2026-04-22 12:27 46.49022 4.31189 38101 ft 412 kts 343°
2026-04-22 12:27 46.54602 4.29224 38107 ft 413 kts 343°
2026-04-22 12:28 46.60155 4.27267 38104 ft 414 kts 343°
2026-04-22 12:28 46.65759 4.25289 38108 ft 415 kts 343°
2026-04-22 12:29 46.71363 4.23306 38106 ft 415 kts 343°
2026-04-22 12:29 46.76981 4.21314 38108 ft 416 kts 343°
2026-04-22 12:30 46.85417 4.18314 38114 ft 416 kts 343°
2026-04-22 12:31 46.91039 4.16309 38108 ft 416 kts 343°
2026-04-22 12:31 46.96665 4.14298 38114 ft 416 kts 343°
2026-04-22 12:32 47.02289 4.12285 38112 ft 416 kts 343°
2026-04-22 12:32 47.10543 4.08534 38119 ft 413 kts 335°
2026-04-22 12:33 47.15855 4.05337 38110 ft 413 kts 335°
2026-04-22 12:33 47.21175 4.02143 38118 ft 413 kts 335°
2026-04-22 12:34 47.26505 3.98963 38112 ft 413 kts 335°
2026-04-22 12:34 47.31833 3.95789 38117 ft 413 kts 335°
2026-04-22 12:35 47.37161 3.92609 38135 ft 413 kts 335°
2026-04-22 12:35 47.42496 3.89416 38120 ft 414 kts 335°
2026-04-22 12:36 47.47832 3.86215 38130 ft 414 kts 335°
2026-04-22 12:36 47.53175 3.83003 38121 ft 415 kts 335°
2026-04-22 12:37 47.58484 3.79810 38124 ft 415 kts 335°
2026-04-22 12:37 47.63742 3.76660 38129 ft 415 kts 335°
2026-04-22 12:38 47.69104 3.73441 38136 ft 416 kts 335°
2026-04-22 12:38 47.74466 3.70212 38135 ft 416 kts 335°
2026-04-22 12:39 47.82512 3.65352 38134 ft 416 kts 335°
2026-04-22 12:40 47.87874 3.62103 38138 ft 416 kts 335°
2026-04-22 12:40 47.93241 3.58845 38142 ft 416 kts 335°
2026-04-22 12:41 47.98607 3.55577 38149 ft 417 kts 335°
2026-04-22 12:41 48.03969 3.52282 38139 ft 417 kts 335°
2026-04-22 12:42 48.09331 3.48977 38151 ft 417 kts 335°
2026-04-22 12:42 48.14692 3.45666 38156 ft 417 kts 335°
2026-04-22 12:43 48.20057 3.42346 38152 ft 417 kts 335°
2026-04-22 12:43 48.25424 3.39018 38159 ft 418 kts 335°
2026-04-22 12:44 48.30761 3.35700 38157 ft 418 kts 335°
2026-04-22 12:44 48.36136 3.32351 38160 ft 418 kts 335°
2026-04-22 12:45 48.41512 3.28993 38172 ft 418 kts 335°
2026-04-22 12:45 48.46878 3.25586 38170 ft 419 kts 335°
2026-04-22 12:46 48.52243 3.22155 38168 ft 419 kts 335°
2026-04-22 12:46 48.57607 3.18721 38184 ft 419 kts 335°
2026-04-22 12:47 48.62974 3.15280 38183 ft 419 kts 335°
2026-04-22 12:47 48.68345 3.11830 38177 ft 420 kts 335°
2026-04-22 12:48 48.73720 3.08368 38182 ft 420 kts 335°
2026-04-22 12:48 48.79095 3.04899 38192 ft 420 kts 335°
2026-04-22 12:49 48.83570 3.02004 38195 ft 421 kts 335°
2026-04-22 12:49 48.88717 2.97838 38200 ft 419 kts 329°
2026-04-22 12:50 48.93610 2.93499 38206 ft 420 kts 329°
2026-04-22 12:50 48.98654 2.89028 38206 ft 420 kts 329°
2026-04-22 12:51 49.03713 2.84566 38210 ft 420 kts 329°
2026-04-22 12:51 49.08775 2.80102 38214 ft 420 kts 329°
2026-04-22 12:52 49.13837 2.75631 38217 ft 420 kts 329°
2026-04-22 12:52 49.18900 2.71147 38214 ft 421 kts 329°
2026-04-22 12:53 49.23960 2.66655 38224 ft 421 kts 329°
2026-04-22 12:53 49.29023 2.62149 38214 ft 421 kts 329°
2026-04-22 12:54 49.34085 2.57633 38226 ft 421 kts 329°
2026-04-22 12:54 49.39147 2.53106 38228 ft 421 kts 329°
2026-04-22 12:55 49.44209 2.48568 38226 ft 422 kts 329°
2026-04-22 12:55 49.49276 2.44015 38234 ft 422 kts 329°
2026-04-22 12:56 49.54002 2.38697 38244 ft 421 kts 318°
2026-04-22 12:56 49.58345 2.32626 38228 ft 422 kts 318°
2026-04-22 12:57 49.62694 2.26542 38228 ft 422 kts 318°
2026-04-22 12:57 49.67063 2.20469 38229 ft 423 kts 318°
2026-04-22 12:58 49.71437 2.14392 38224 ft 423 kts 318°
2026-04-22 12:58 49.75782 2.08343 38223 ft 423 kts 318°
2026-04-22 12:59 49.80182 2.02199 38226 ft 423 kts 318°
2026-04-22 12:59 49.84552 1.96083 38234 ft 424 kts 317°
2026-04-22 13:00 49.88339 1.89198 38237 ft 424 kts 303°
2026-04-22 13:00 49.90910 1.80885 38239 ft 426 kts 294°
2026-04-22 13:01 49.93104 1.72342 38235 ft 426 kts 293°
2026-04-22 13:01 49.95317 1.63886 38239 ft 425 kts 294°
2026-04-22 13:02 49.97668 1.55469 38230 ft 424 kts 301°
2026-04-22 13:02 50.01150 1.48134 38227 ft 422 kts 315°
2026-04-22 13:03 50.05486 1.42134 38098 ft 413 kts 319°
2026-04-22 13:03 50.07653 1.39242 37794 ft 408 kts 319°
2026-04-22 13:03 50.09798 1.36372 37521 ft 403 kts 319°
2026-04-22 13:03 50.11903 1.33536 37249 ft 398 kts 318°
2026-04-22 13:04 50.13981 1.30718 36987 ft 394 kts 318°
2026-04-22 13:04 50.16033 1.27921 36732 ft 390 kts 318°
2026-04-22 13:04 50.18067 1.25140 36466 ft 387 kts 318°
2026-04-22 13:04 50.20082 1.22377 36216 ft 384 kts 318°
2026-04-22 13:05 50.22083 1.19631 35958 ft 381 kts 318°
2026-04-22 13:05 50.24067 1.16904 35713 ft 379 kts 318°
2026-04-22 13:05 50.26036 1.14195 35422 ft 374 kts 317°
2026-04-22 13:05 50.27978 1.11521 35091 ft 370 kts 317°
2026-04-22 13:06 50.29901 1.08870 34727 ft 367 kts 317°
2026-04-22 13:06 50.31808 1.06237 34369 ft 364 kts 317°
2026-04-22 13:06 50.33699 1.03624 33964 ft 361 kts 317°
2026-04-22 13:06 50.35573 1.01030 33578 ft 358 kts 317°
2026-04-22 13:07 50.37428 0.98462 33210 ft 354 kts 318°
2026-04-22 13:07 50.39266 0.95914 32860 ft 351 kts 318°
2026-04-22 13:07 50.41084 0.93392 32490 ft 348 kts 318°
2026-04-22 13:07 50.42885 0.90889 32153 ft 344 kts 318°
2026-04-22 13:08 50.44672 0.88405 31796 ft 342 kts 319°
2026-04-22 13:08 50.46463 0.85987 31497 ft 338 kts 319°
2026-04-22 13:08 50.48269 0.83629 31010 ft 339 kts 321°
2026-04-22 13:08 50.50144 0.81323 30396 ft 344 kts 322°
2026-04-22 13:09 50.52034 0.79051 29813 ft 340 kts 322°
2026-04-22 13:09 50.53912 0.76800 29218 ft 340 kts 323°
2026-04-22 13:09 50.55777 0.74557 28711 ft 334 kts 323°
2026-04-22 13:09 50.57612 0.72340 28078 ft 331 kts 323°
2026-04-22 13:10 50.59434 0.70129 27399 ft 330 kts 323°
2026-04-22 13:10 50.61244 0.67925 26750 ft 328 kts 323°
2026-04-22 13:10 50.63045 0.65728 26159 ft 326 kts 323°
2026-04-22 13:10 50.64806 0.63575 25579 ft 324 kts 323°
2026-04-22 13:11 50.66579 0.61404 25005 ft 322 kts 323°
2026-04-22 13:11 50.68341 0.59243 24441 ft 320 kts 323°
2026-04-22 13:11 50.70093 0.57092 23884 ft 318 kts 324°
2026-04-22 13:11 50.71832 0.54956 23336 ft 314 kts 324°
2026-04-22 13:12 50.73546 0.52847 22969 ft 311 kts 324°
2026-04-22 13:12 50.75248 0.50752 22610 ft 309 kts 324°
2026-04-22 13:12 50.76936 0.48670 22308 ft 306 kts 324°
2026-04-22 13:12 50.78609 0.46607 21974 ft 304 kts 324°
2026-04-22 13:13 50.80266 0.44562 21661 ft 301 kts 324°
2026-04-22 13:13 50.81910 0.42528 21352 ft 299 kts 324°
2026-04-22 13:13 50.83542 0.40509 21060 ft 297 kts 324°
2026-04-22 13:13 50.85169 0.38494 20773 ft 298 kts 324°
2026-04-22 13:14 50.86676 0.36629 20502 ft 300 kts 324°
2026-04-22 13:14 50.88328 0.34583 20210 ft 305 kts 324°
2026-04-22 13:14 50.89845 0.32707 19961 ft 315 kts 324°
2026-04-22 13:14 50.91604 0.30524 19658 ft 325 kts 324°
2026-04-22 13:15 50.93390 0.28304 19326 ft 326 kts 324°
2026-04-22 13:15 50.95172 0.26082 18995 ft 326 kts 323°
2026-04-22 13:15 50.96952 0.23857 18665 ft 326 kts 323°
2026-04-22 13:15 50.98734 0.21631 18298 ft 326 kts 324°
2026-04-22 13:16 51.00516 0.19407 17956 ft 325 kts 324°
2026-04-22 13:16 51.02289 0.17192 17628 ft 324 kts 323°
2026-04-22 13:16 51.04051 0.14985 17317 ft 322 kts 323°
2026-04-22 13:16 51.05806 0.12786 16867 ft 321 kts 323°
2026-04-22 13:17 51.07556 0.10592 16544 ft 320 kts 324°
2026-04-22 13:17 51.09279 0.08430 16238 ft 319 kts 323°
2026-04-22 13:17 51.11040 0.06217 15920 ft 318 kts 323°
2026-04-22 13:17 51.12770 0.04039 15610 ft 318 kts 323°
2026-04-22 13:18 51.14503 0.01859 15298 ft 317 kts 323°
2026-04-22 13:18 51.16230 -0.00318 14977 ft 317 kts 323°
2026-04-22 13:18 51.17954 -0.02492 14673 ft 316 kts 323°
2026-04-22 13:18 51.19679 -0.04671 14366 ft 316 kts 323°
2026-04-22 13:19 51.21403 -0.06848 14043 ft 316 kts 323°
2026-04-22 13:19 51.23122 -0.09023 13694 ft 315 kts 323°
2026-04-22 13:19 51.24839 -0.11198 13368 ft 315 kts 323°
2026-04-22 13:19 51.26550 -0.13366 13056 ft 314 kts 323°
2026-04-22 13:20 51.28257 -0.15531 12769 ft 312 kts 323°
2026-04-22 13:20 51.29957 -0.17686 12463 ft 312 kts 323°
2026-04-22 13:20 51.31648 -0.19836 12218 ft 310 kts 323°
2026-04-22 13:20 51.33338 -0.21990 11851 ft 311 kts 323°
2026-04-22 13:21 51.35026 -0.24141 11543 ft 310 kts 323°
2026-04-22 13:21 51.36707 -0.26284 11246 ft 309 kts 323°
2026-04-22 13:21 51.38387 -0.28429 10941 ft 309 kts 323°
2026-04-22 13:21 51.40067 -0.30572 10634 ft 308 kts 323°
2026-04-22 13:22 51.41716 -0.32681 10422 ft 305 kts 322°
2026-04-22 13:22 51.43357 -0.34776 10205 ft 302 kts 324°
2026-04-22 13:22 51.45079 -0.36709 9829 ft 302 kts 329°
2026-04-22 13:22 51.46846 -0.38490 9539 ft 301 kts 330°
2026-04-22 13:23 51.48636 -0.40258 9242 ft 300 kts 331°
2026-04-22 13:23 51.50408 -0.42011 8947 ft 299 kts 330°
2026-04-22 13:23 51.52171 -0.43768 8664 ft 297 kts 330°
2026-04-22 13:23 51.53918 -0.45521 8382 ft 296 kts 330°
2026-04-22 13:24 51.55660 -0.47278 8102 ft 295 kts 330°
2026-04-22 13:24 51.57391 -0.49031 7818 ft 294 kts 330°
2026-04-22 13:24 51.59121 -0.50787 7546 ft 294 kts 330°
2026-04-22 13:24 51.60846 -0.52541 7272 ft 293 kts 330°
2026-04-22 13:25 51.62568 -0.54296 6997 ft 292 kts 330°
2026-04-22 13:25 51.64281 -0.56046 6671 ft 294 kts 330°
2026-04-22 13:25 51.66011 -0.57809 6102 ft 297 kts 331°
2026-04-22 13:25 51.67745 -0.59579 5724 ft 294 kts 331°
2026-04-22 13:26 51.69464 -0.61341 5435 ft 292 kts 331°
2026-04-22 13:26 51.71177 -0.63090 5143 ft 291 kts 331°
2026-04-22 13:26 51.72882 -0.64833 4863 ft 289 kts 331°
2026-04-22 13:26 51.74554 -0.66554 4561 ft 281 kts 332°
2026-04-22 13:27 51.76185 -0.68227 4315 ft 277 kts 332°
2026-04-22 13:27 51.77907 -0.69480 4059 ft 265 kts 358°
2026-04-22 13:27 51.79614 -0.69058 3985 ft 241 kts 33°
2026-04-22 13:27 51.80908 -0.67454 3770 ft 233 kts 50°
2026-04-22 13:28 51.81880 -0.65396 3531 ft 228 kts 60°
2026-04-22 13:28 51.82666 -0.63189 3239 ft 227 kts 68°
2026-04-22 13:28 51.83270 -0.60835 2993 ft 227 kts 71°
2026-04-22 13:28 51.83742 -0.58412 2795 ft 224 kts 75°
2026-04-22 13:29 51.84179 -0.56011 2561 ft 220 kts 76°
2026-04-22 13:29 51.84578 -0.53675 2290 ft 209 kts 75°
2026-04-22 13:29 51.84946 -0.51519 2106 ft 189 kts 76°
2026-04-22 13:29 51.85268 -0.49612 1991 ft 169 kts 76°
2026-04-22 13:30 51.85574 -0.47876 1824 ft 152 kts 76°
2026-04-22 13:30 51.85842 -0.46299 1560 ft 137 kts 76°
2026-04-22 13:30 51.86088 -0.44871 1331 ft 128 kts 77°
2026-04-22 13:30 51.86318 -0.43516 1183 ft 123 kts 77°
2026-04-22 13:31 51.86542 -0.42171 1038 ft 129 kts 77°
2026-04-22 13:31 51.86797 -0.40760 874 ft 129 kts 78°
2026-04-22 13:31 51.87027 -0.39378 677 ft 125 kts 77°
2026-04-22 13:31 51.87269 -0.37980 538 ft 132 kts 77°
2026-04-22 13:32 51.87493 -0.36665 525 ft 103 kts 73°
2026-04-22 13:32 51.87614 -0.35976 515 ft 24 kts 69°
2026-04-22 13:32 51.87757 -0.35973 515 ft 23 kts 323°
2026-04-22 13:32 51.87760 -0.36211 517 ft 23 kts 254°
2026-04-22 13:33 51.87718 -0.36452 518 ft 22 kts 253°
2026-04-22 13:33 51.87678 -0.36686 521 ft 21 kts 256°
2026-04-22 13:33 51.87646 -0.36899 525 ft 18 kts 281°
2026-04-22 13:33 51.87761 -0.36996 516 ft 21 kts 342°
2026-04-22 13:34 51.87903 -0.37071 508 ft 25 kts 343°
2026-04-22 13:34 51.88038 -0.37142 507 ft 23 kts 342°
2026-04-22 13:34 51.88180 -0.37219 515 ft 17 kts 341°
2026-04-22 13:34 51.88224 -0.37354 515 ft 16 kts 251°
2026-04-22 13:35 51.88208 -0.37526 515 ft 13 kts 281°
2026-04-22 13:35 51.88182 -0.37662 521 ft 13 kts 240°
2026-04-22 13:35 51.88152 -0.37741 522 ft 6 kts 236°
2026-04-22 13:35 51.88126 -0.37792 522 ft 6 kts 225°
2026-04-22 13:36 51.88106 -0.37823 522 ft 6 kts 219°
2026-04-22 13:36 51.88073 -0.37864 522 ft 6 kts 217°
2026-04-22 13:36 51.88037 -0.37868 522 ft 6 kts 130°
2026-04-22 13:36 51.88027 -0.37844 522 ft 0 kts 127°
2026-04-22 13:37 51.88020 -0.37831 522 ft 0 kts 128°